Weather in Klimino

Russia / Krasnoyarsk Krai     58°38′23″N   98°44′42″E
temp.,
°C
wind,
m/s
gust,
m/s
humid.,
%
clouds,
%
prec.,
mm/h
press.,
hPa
HPBL,
m
18 may, tue
tue1801:00−2ne11531 0.0 101210
04:00−3nne11540 0.0 101210
07:00+3n12355 0.0 1011333
10:00+8nnw23255 0.0 10091859
13:00+11n13214 0.0 10062310
16:00+11nne23205 0.0 10042621
19:00+9nne35265 0.0 1003785
22:00+2nne26475 0.0 1006114
19 may, wed
wed1901:00−1nne22575 0.0 100821
04:00−3nne11639 0.0 101011
07:00+3nne23439 0.0 1009373
10:00+7ne33305 0.0 10081808
13:00+10nne3225100 0.0 10072714
16:00+11ne322253 0.0 10062707
19:00+9ne352889 0.0 1006806
22:00+3ne31246100 0.0 1008364
20 may, thu
thu2001:00+3ene31053100 0.0 1009447
04:00+1ne3866100 0.0 1009217
07:00+4ne4752100 0.0 1010425
10:00+8ene4536100 0.0 10101399
13:00+12ne332895 0.0 10092001
16:00+13ne342568 0.0 10082393
19:00+12ne353145 0.0 1009546
22:00+7nne4134778 0.0 1011499
21 may, fri
fri2101:00+4nne31162100 0.0 1012412
04:00+1n2479100 0.0 1013101
07:00+5nne3659100 0.0 1014432
10:00+11nne34385 0.0 10131724
13:00+14n3428100 0.0 10122635
16:00+15nnw342594 0.0 10112812
19:00+13nne3535100 0.0 1011527
22:00+7e115387 0.0 101311
22 may, sat
sat2201:00+4ne0162100 0.0 101210
04:00+4sse2264100 0.0 101221
07:00+8sw2354100 0.0 1011434
10:00+12wnw3441100 0.0 10101777
13:00+11w3349100 0.8 10091600
16:00+10wnw3463100 1.1 10091187
19:00+8n2381100 2.2 1011148
22:00+5nw119382 0.2 101210